Terminal Aerodrome Forecast
Issued by NWS

Home | Current Version | Previous Version | Text Only | Print | Product List | Glossary On
Versions: 1 2 3 4 5 6 7 8 9 10 11 12 13 14 15 16 17 18 19 20 21 22 23 24
000
FTUS41 KCTP 261739
TAFLNS
TAF
KLNS 261739Z 2618/2718 12008G14KT P6SM OVC015
     FM270100 09006KT 2SM -RADZ BR OVC007
     FM271700 26008KT 6SM HZ OVC015=

USA.gov is the U.S. government's official web portal to all federal, state and local government web resources and services.